This is the latest recevied weather packets stored in our database for station/object S50ME-11. If no packets are shown the sender has not sent any weather packets the latest 10 day(s).
| Time | Temp. | Humidity | Pressure | Rain* | Wind** | Luminosity | Snow |
|---|---|---|---|---|---|---|---|
| 1777633245 | 25.56° C | 35% | 1028.1 hPa | - | - | - | - |
| 1777632347 | 25.56° C | 35% | 1029.5 hPa | - | - | - | - |
| 1777632343 | 25.56° C | 35% | 1029.5 hPa | - | - | - | - |
| 1777631446 | 26.11° C | 34% | 1028.4 hPa | - | - | - | - |
| 1777631444 | 26.11° C | 34% | 1028.4 hPa | - | - | - | - |
| 1777630546 | 26.67° C | 35% | 1028.9 hPa | - | - | - | - |
| 1777630543 | 26.67° C | 35% | 1028.9 hPa | - | - | - | - |
| 1777629646 | 26.11° C | 35% | 1029.2 hPa | - | - | - | - |
| 1777629643 | 26.11° C | 35% | 1029.2 hPa | - | - | - | - |
| 1777628746 | 26.67° C | 35% | 1029.2 hPa | - | - | - | - |
| 1777628742 | 26.67° C | 35% | 1029.2 hPa | - | - | - | - |
| 1777627846 | 26.67° C | 35% | 1029.4 hPa | - | - | - | - |
| 1777627842 | 26.67° C | 35% | 1029.4 hPa | - | - | - | - |
| 1777626945 | 26.11° C | 34% | 1029.9 hPa | - | - | - | - |
| 1777626942 | 26.11° C | 34% | 1029.9 hPa | - | - | - | - |
| 1777626045 | 25.56° C | 35% | 1030 hPa | - | - | - | - |
| 1777626042 | 25.56° C | 35% | 1030 hPa | - | - | - | - |
| 1777625144 | 25° C | 35% | 1030.1 hPa | - | - | - | - |
| 1777625141 | 25° C | 35% | 1030.1 hPa | - | - | - | - |
| 1777624244 | 23.89° C | 36% | 1029.9 hPa | - | - | - | - |
| 1777624241 | 23.89° C | 36% | 1029.9 hPa | - | - | - | - |
| 1777623344 | 22.78° C | 36% | 1030 hPa | - | - | - | - |
| 1777623341 | 22.78° C | 36% | 1030 hPa | - | - | - | - |
| 1777622443 | 22.22° C | 36% | 1029.9 hPa | - | - | - | - |
| 1777622440 | 22.22° C | 36% | 1029.9 hPa | - | - | - | - |
* Rain since midnight (hover to see other rain measurements)
** Current wind speed in m/s (hover to see current wind gust speed)